Weather Service Report


599 
ASUS45 KCYS 311510
RWRWY 

WYOMING REGIONAL WEATHER ROUNDUP
NATIONAL WEATHER SERVICE CHEYENNE WY
900 AM MDT THU JUL 31 2014

NOTE:  "FAIR" INDICATES FEW OR NO CLOUDS BELOW 12,000 FEET
WITH NO SIGNIFICANT WEATHER AND/OR OBSTRUCTIONS TO VISIBILITY.

WYZ001-311600-
YELLOWSTONE NATIONAL PARK
  
CITY           SKY/WX    TMP DP  RH WIND       PRES   REMARKS
LK YELLOWSTONE   N/A     55  47  74 SE5       30.48S                  
W YELLOWSTONE  NOT AVBL                                               

$$
WYZ002>013-054>058-071-098>099-311600-
NORTHERN WYOMING
  
CITY           SKY/WX    TMP DP  RH WIND       PRES   REMARKS
JACKSON        SUNNY     54  41  62 CALM      30.40S                  
CODY           NOT AVBL                                               
GREYBULL       SUNNY     69  40  34 SW5       30.20S                  
WORLAND        SUNNY     67  47  48 W5        30.21R                  
SHERIDAN       SUNNY     70  45  40 CALM      30.19S                  
BUFFALO        SUNNY     75  41  29 SE10      30.26R                  
GILLETTE       SUNNY     74  47  38 SW9       30.23S                  
HULETT         FAIR      64  50  59 MISG      30.25                   
NEWCASTLE      FAIR      70  41  35 CALM      30.25                   

$$
WYZ014>020-022>026-101>103-311600-
CENTRAL WYOMING
  
CITY           SKY/WX    TMP DP  RH WIND       PRES   REMARKS
BIG PINEY      SUNNY     54  45  71 CALM      30.41S                  
PINEDALE       SUNNY     54  43  66 CALM      30.42S                  
DUBOIS         FAIR      54  36  50 NW8       30.39S                  
LANDER         SUNNY     63  49  60 SE5       30.29F                  
RIVERTON       SUNNY     65  37  35 NW13      30.31S                  
CASPER         SUNNY     66  45  46 W3        30.30S                  
DOUGLAS        SUNNY     66  50  56 NW6       30.29S                  

$$
WYZ021-027>030-104>119-311600-
SOUTHERN WYOMING
  
CITY           SKY/WX    TMP DP  RH WIND       PRES   REMARKS
EVANSTON       SUNNY     57  48  72 N6        30.39S                  
KEMMERER       SUNNY     59  45  58 CALM      30.42R                  
FORT BRIDGER   FAIR      58  51  78 E5        30.43R                  
ROCK SPRINGS   SUNNY     58  48  69 CALM      30.38S                  
DIXON          FAIR      60  47  60 CALM      30.36S                  
RAWLINS        SUNNY     58  48  69 E3        30.37S                  
SARATOGA       FAIR      55  46  71 S3        30.39S                  
LARAMIE        SUNNY     55  48  77 VRB5      30.39S                  
CHEYENNE       SUNNY     65  49  56 CALM      30.33S                  
TORRINGTON     SUNNY     64  54  69 W3        30.24R                  
PINE BLUFFS    FAIR      64  54  68 CALM      30.29S                  

$$

Return to Home page


Western Regional Climate Center, wrcc@dri.edu